This is the latest recevied weather packets stored in our database for station/object W2JGA. If no packets are shown the sender has not sent any weather packets the latest 1 day(s).
| Time | Temp. | Humidity | Pressure | Rain* | Wind** | Luminosity | Snow |
|---|---|---|---|---|---|---|---|
| 1778021918 | 24.44° C | 35% | 1012.4 hPa | 0 mm | 2.68 m/s, 221° | 539 W/m² | - |
| 1778021617 | 23.89° C | 34% | 1012.4 hPa | 0 mm | 2.68 m/s, 212° | 553 W/m² | - |
| 1778021316 | 24.44° C | 34% | 1012.4 hPa | 0 mm | 4.02 m/s, 242° | 561 W/m² | - |
| 1778021015 | 23.89° C | 34% | 1012.9 hPa | 0 mm | 3.58 m/s, 249° | 567 W/m² | - |
| 1778020711 | 24.44° C | 33% | 1012.9 hPa | 0 mm | 4.02 m/s, 212° | 583 W/m² | - |
| 1778020409 | 24.44° C | 34% | 1012.9 hPa | 0 mm | 4.92 m/s, 271° | 609 W/m² | - |
| 1778020104 | 23.89° C | 34% | 1012.9 hPa | 0 mm | 3.13 m/s, 223° | 627 W/m² | - |
| 1778019800 | 23.89° C | 36% | 1012.9 hPa | 0 mm | 2.24 m/s, 200° | 623 W/m² | - |
| 1778019498 | 23.89° C | 36% | 1012.9 hPa | 0 mm | 3.58 m/s, 216° | 615 W/m² | - |
| 1778019194 | 23.89° C | 35% | 1012.9 hPa | 0 mm | 4.47 m/s, 211° | 638 W/m² | - |
| 1778018892 | 23.89° C | 36% | 1012.9 hPa | 0 mm | 4.02 m/s, 242° | 646 W/m² | - |
| 1778018588 | 22.78° C | 37% | 1012.9 hPa | 0 mm | 4.92 m/s, 263° | 689 W/m² | - |
| 1778018287 | 23.33° C | 37% | 1013.2 hPa | 0 mm | 5.36 m/s, 234° | 132 W/m² | - |
| 1778017984 | 23.89° C | 37% | 1012.9 hPa | 0 mm | 3.58 m/s, 280° | 131 W/m² | - |
| 1778017682 | 23.33° C | 39% | 1013.2 hPa | 0 mm | 2.24 m/s, 314° | 159 W/m² | - |
| 1778017379 | 23.89° C | 38% | 1013.2 hPa | 0 mm | 3.58 m/s, 183° | 704 W/m² | - |
| 1778017076 | 23.89° C | 37% | 1013.2 hPa | 0 mm | 4.02 m/s, 264° | 717 W/m² | - |
| 1778016774 | 23.89° C | 38% | 1013.2 hPa | 0 mm | 5.81 m/s, 261° | 721 W/m² | - |
| 1778016469 | 23.89° C | 37% | 1013.2 hPa | 0 mm | 5.36 m/s, 279° | 711 W/m² | - |
| 1778016167 | 23.89° C | 37% | 1013.6 hPa | 0 mm | 4.02 m/s, 244° | 688 W/m² | - |
| 1778015863 | 23.89° C | 35% | 1013.6 hPa | 0 mm | 3.58 m/s, 242° | 678 W/m² | - |
| 1778015561 | 23.89° C | 36% | 1013.2 hPa | 0 mm | 5.36 m/s, 225° | 695 W/m² | - |
| 1778015257 | 23.89° C | 38% | 1013.6 hPa | 0 mm | 4.02 m/s, 266° | 711 W/m² | - |
| 1778014954 | 23.89° C | 38% | 1013.6 hPa | 0 mm | 3.58 m/s, 238° | 721 W/m² | - |
| 1778014651 | 23.89° C | 40% | 1013.6 hPa | 0 mm | 4.47 m/s, 227° | 692 W/m² | - |
* Rain latest hour (hover to see other rain measurements)
** Current wind speed in m/s (hover to see current wind gust speed)